Вернуться в каталог

AUTCUBE 2

АктивенЛюбительское радиоPO
NORAD 43681·PAYLOAD·🇯🇵 Japan

Запущен Oct 29, 2018 с Tanegashima Space Center

Loading…

Ближайшие Пролёты (ближайшие 24 часа)

TLE

СвежийSource: Space-Track

Эпоха: Sep 14, 2026, 12:52 UTC

1 43681U 18084K   26257.53671197  .00003144  00000-0  19451-3 0  9999
2 43681  98.0613 108.4501 0010271  98.6349 261.6044 15.10590739430415

Отслеживайте AUTCUBE 2 в реальном времени с AllMySat

Download on the App Store